TimeEDT,TemperatureF,Dew PointF,Humidity,Sea Level PressureIn,VisibilityMPH,Wind Direction,Wind SpeedMPH,Gust SpeedMPH,PrecipitationIn,Events,Conditions,WindDirDegrees,DateUTC
12:22 AM,66.2,62.6,88,30.13,10.0,ENE,10.4,-,N/A,,Overcast,70,2013-05-01 04:22:00
12:32 AM,64.4,62.6,94,30.13,10.0,ENE,6.9,-,N/A,,Overcast,70,2013-05-01 04:32:00
1:01 AM,64.4,62.6,94,30.14,10.0,ENE,4.6,-,N/A,,Overcast,70,2013-05-01 05:01:00
1:20 AM,64.4,62.6,94,30.13,8.0,NE,6.9,-,0.00,Rain,Light Rain,50,2013-05-01 05:20:00
1:34 AM,64.4,60.8,88,30.13,8.0,ENE,8.1,16.1,0.00,Rain,Light Rain,70,2013-05-01 05:34:00
1:49 AM,64.4,60.8,88,30.12,10.0,ENE,6.9,-,0.00,,Overcast,70,2013-05-01 05:49:00
1:53 AM,64.0,61.0,90,30.12,10.0,ENE,4.6,-,0.00,,Overcast,70,2013-05-01 05:53:00
2:29 AM,64.4,59.0,83,30.12,10.0,ENE,8.1,-,N/A,,Overcast,70,2013-05-01 06:29:00
2:53 AM,64.0,59.0,84,30.11,10.0,NE,6.9,-,N/A,,Mostly Cloudy,50,2013-05-01 06:53:00
3:53 AM,62.1,57.9,86,30.11,10.0,NE,5.8,-,N/A,,Clear,40,2013-05-01 07:53:00
4:53 AM,60.1,57.0,90,30.12,10.0,NE,8.1,-,N/A,,Clear,40,2013-05-01 08:53:00
5:53 AM,59.0,55.9,90,30.12,10.0,NE,9.2,-,N/A,,Clear,40,2013-05-01 09:53:00
6:53 AM,57.9,55.0,90,30.13,10.0,NE,10.4,17.3,N/A,,Clear,40,2013-05-01 10:53:00
7:17 AM,59.0,55.4,88,30.14,10.0,NE,11.5,-,N/A,,Partly Cloudy,40,2013-05-01 11:17:00
7:53 AM,59.0,55.9,90,30.16,10.0,NE,8.1,-,N/A,,Scattered Clouds,40,2013-05-01 11:53:00
8:00 AM,59.0,55.4,88,30.17,10.0,NE,9.2,-,N/A,,Mostly Cloudy,50,2013-05-01 12:00:00
8:20 AM,60.8,55.4,82,30.17,10.0,NE,10.4,-,N/A,,Overcast,40,2013-05-01 12:20:00
8:53 AM,60.1,55.0,83,30.18,10.0,NE,11.5,-,N/A,,Overcast,50,2013-05-01 12:53:00
9:53 AM,60.1,55.0,83,30.20,10.0,NNE,11.5,-,N/A,,Overcast,30,2013-05-01 13:53:00
12:34 PM,64.4,55.4,73,30.19,10.0,NE,8.1,-,N/A,,Overcast,50,2013-05-01 16:34:00
12:53 PM,66.0,55.0,68,30.19,10.0,NE,8.1,-,N/A,,Overcast,50,2013-05-01 16:53:00
1:40 PM,68.0,55.4,64,30.19,10.0,ENE,6.9,-,N/A,,Overcast,70,2013-05-01 17:40:00
1:48 PM,68.0,55.4,64,30.19,10.0,NE,10.4,-,N/A,,Overcast,40,2013-05-01 17:48:00
1:53 PM,66.9,55.9,68,30.19,10.0,ENE,8.1,-,N/A,,Overcast,60,2013-05-01 17:53:00
2:29 PM,68.0,55.4,64,30.18,10.0,NE,8.1,-,N/A,,Overcast,50,2013-05-01 18:29:00
2:53 PM,69.1,55.9,63,30.18,10.0,NE,6.9,-,N/A,,Overcast,40,2013-05-01 18:53:00
3:53 PM,70.0,55.9,61,30.16,10.0,NE,10.4,-,N/A,,Overcast,50,2013-05-01 19:53:00
5:53 PM,69.1,57.0,65,30.16,10.0,NE,6.9,-,N/A,,Overcast,50,2013-05-01 21:53:00
6:53 PM,68.0,57.0,68,30.15,10.0,ENE,5.8,-,N/A,,Overcast,60,2013-05-01 22:53:00
7:53 PM,66.9,57.9,73,30.16,10.0,ENE,3.5,-,N/A,,Partly Cloudy,60,2013-05-01 23:53:00
8:53 PM,66.0,57.0,73,30.18,10.0,ENE,8.1,-,N/A,,Overcast,60,2013-05-02 00:53:00
9:49 PM,64.4,57.2,77,30.19,10.0,NE,9.2,-,N/A,,Overcast,40,2013-05-02 01:49:00
9:53 PM,64.9,57.0,75,30.19,10.0,NE,10.4,-,N/A,,Overcast,40,2013-05-02 01:53:00
10:53 PM,64.0,57.0,78,30.19,10.0,NE,11.5,-,N/A,,Mostly Cloudy,50,2013-05-02 02:53:00
11:53 PM,63.0,57.9,84,30.19,10.0,NE,11.5,18.4,N/A,,Mostly Cloudy,50,2013-05-02 03:53:00